Brooksville, FL

4:32 AM EDT on September 22, 2017 (GMT -0400)
Hernando County

Weather History for KBKV - October, 2012

Change the Weather History Date:

Saturday, October 6, 2012

  Actual Average Record
Temperature  
Mean Temperature 78 °F -  
Max Temperature 87 °F 84 °F 91 °F (2000)
Min Temperature 70 °F 64 °F 53 °F (2006)
Cooling Degree Days 13    
Growing Degree Days 28 (Base 50)    
Moisture  
Dew Point 72 °F    
Average Humidity 86    
Maximum Humidity 100    
Minimum Humidity 59    
Precipitation  
Precipitation 0.00 in - - ()
Sea Level Pressure  
Sea Level Pressure 29.96 in    
Wind  
Wind Speed 3 mph (North)    
Max Wind Speed 16 mph    
Max Gust Speed 25 mph    
Visibility 8 miles    
Events Rain , Thunderstorm    
Averages and records for this station are not official NWS values.
T = Trace of Precipitation, MM = Missing Value Source: NWS Daily Summary

Daily Weather History Graph

Daily Weather History Graph

Search for Another Location

Airport or City:

Trip Planner

Search our weather history database for the weather conditions in past years. The results will help you decide how hot, cold, wet, or windy it might be!

Date:

Astronomy

Oct. 06, 2012 Rise Set
Actual Time 7:25 AM EDT 7:09 PM EDT
Civil Twilight 7:02 AM EDT 7:32 PM EDT
Nautical Twilight 6:34 AM EDT 8:00 PM EDT
Astronomical Twilight 6:07 AM EDT 8:27 PM EDT
Moon 11:45 PM EDT (10/6) 12:57 PM EDT (10/6)
Length of Visible Light 12h 30m
Length of Day
11h 43m
Waning Gibbous, 65% of the Moon is Illuminated
Oct 6
Waning Gibbous
Oct 8
Last Quarter
Oct 15
New
Oct 21
First Quarter
Oct 29
Full

Hourly Weather History & Observations

Time (EDT) Temp. Heat Index Dew Point Humidity Pressure Visibility Wind Dir Wind Speed Gust Speed Precip Events Conditions
12:53 AM 73.0 °F - 72.0 °F 96% 30.01 in 10.0 mi Calm Calm - N/A   Clear
1:18 AM 73.4 °F - 71.6 °F 94% 30.01 in 10.0 mi NNE 3.5 mph - N/A   Partly Cloudy
1:53 AM 73.9 °F - 73.0 °F 97% 29.99 in 10.0 mi ENE 3.5 mph - N/A   Clear
2:53 AM 73.9 °F - 72.0 °F 93% 29.99 in 10.0 mi Calm Calm - N/A   Clear
3:25 AM 73.4 °F - 71.6 °F 94% 29.99 in 10.0 mi North 3.5 mph - N/A   Scattered Clouds
3:33 AM 73.4 °F - 71.6 °F 94% 29.99 in 10.0 mi NE 3.5 mph - N/A   Mostly Cloudy
3:53 AM 73.0 °F - 73.0 °F 100% 29.97 in 10.0 mi NE 3.5 mph - N/A   Overcast
4:28 AM 73.4 °F - 71.6 °F 94% 29.97 in 10.0 mi NNE 3.5 mph - N/A   Scattered Clouds
4:51 AM 73.4 °F - 73.4 °F 100% 29.97 in 5.0 mi NNW 3.5 mph - N/A   Mostly Cloudy
4:53 AM 73.0 °F - 73.0 °F 100% 29.96 in 6.0 mi NW 3.5 mph - N/A   Mostly Cloudy
5:34 AM 73.4 °F - 73.4 °F 100% 29.97 in 1.8 mi Calm Calm - N/A   Overcast
5:41 AM 73.4 °F - 73.4 °F 100% 29.96 in 1.0 mi East 3.5 mph - N/A   Overcast
5:53 AM 73.0 °F - 73.0 °F 100% 29.96 in 1.5 mi Calm Calm - N/A   Overcast
6:25 AM 73.4 °F - 73.4 °F 100% 29.97 in 2.0 mi Calm Calm - N/A   Mist
6:41 AM 73.4 °F - 73.4 °F 100% 29.96 in 1.8 mi Calm Calm - N/A   Overcast
6:50 AM 73.4 °F - 73.4 °F 100% 29.97 in 1.5 mi Calm Calm - N/A   Overcast
6:53 AM 73.0 °F - 73.0 °F 100% 29.97 in 1.5 mi Calm Calm - N/A   Overcast
7:02 AM 73.4 °F - 71.6 °F 94% 29.97 in 2.0 mi Calm Calm - N/A   Overcast
7:12 AM 73.4 °F - 71.6 °F 94% 29.97 in 8.0 mi Calm Calm - N/A   Overcast
7:33 AM 73.4 °F - 71.6 °F 94% 29.98 in 10.0 mi Calm Calm - N/A   Scattered Clouds
7:53 AM 73.0 °F - 73.0 °F 100% 29.98 in 10.0 mi Calm Calm - N/A   Mostly Cloudy
8:53 AM 73.9 °F - 73.9 °F 100% 29.99 in 10.0 mi Calm Calm - N/A   Overcast
9:53 AM 79.0 °F - 75.0 °F 88% 29.99 in 10.0 mi Calm Calm - N/A   Mostly Cloudy
10:02 AM 80.6 °F 86.2 °F 75.2 °F 84% 30.00 in 10.0 mi Calm Calm - N/A   Scattered Clouds
10:53 AM 81.0 °F 86.7 °F 75.0 °F 82% 30.00 in 10.0 mi Calm Calm - N/A   Clear
11:53 AM 84.9 °F 92.1 °F 73.9 °F 69% 29.99 in 10.0 mi Calm Calm - N/A   Mostly Cloudy
12:18 PM 84.2 °F 90.9 °F 73.4 °F 70% 29.99 in 10.0 mi Calm Calm - N/A   Scattered Clouds
12:30 PM 84.2 °F 90.9 °F 73.4 °F 70% 29.99 in 10.0 mi North 5.8 mph - N/A   Mostly Cloudy
12:47 PM 84.2 °F 90.9 °F 73.4 °F 70% 29.98 in 10.0 mi North 4.6 mph - N/A Thunderstorm Mostly Cloudy
12:48 PM 84.0 °F 90.2 °F 73.0 °F 69% 29.97 in 10.0 mi North 5.8 mph - N/A Thunderstorm Mostly Cloudy
1:13 PM 82.4 °F 88.2 °F 73.4 °F 74% 29.97 in 10.0 mi North 4.6 mph - N/A Thunderstorm Thunderstorm
1:27 PM 84.2 °F 89.6 °F 71.6 °F 66% 29.96 in 10.0 mi NNW 3.5 mph - N/A Thunderstorm Mostly Cloudy
1:35 PM 84.2 °F 90.9 °F 73.4 °F 70% 29.96 in 10.0 mi Calm Calm - N/A   Scattered Clouds
1:53 PM 84.9 °F 92.1 °F 73.9 °F 69% 29.94 in 10.0 mi South 6.9 mph - N/A   Clear
2:53 PM 84.9 °F 92.1 °F 73.9 °F 69% 29.92 in 10.0 mi South 5.8 mph - N/A   Mostly Cloudy
3:53 PM 86.0 °F 90.7 °F 70.0 °F 59% 29.90 in 10.0 mi West 10.4 mph - N/A   Partly Cloudy
4:53 PM 84.0 °F 89.0 °F 71.1 °F 65% 29.89 in 10.0 mi WNW 6.9 mph - N/A   Clear
5:53 PM 84.9 °F 92.1 °F 73.9 °F 69% 29.89 in 10.0 mi West 5.8 mph - N/A   Clear
6:45 PM 82.4 °F 88.2 °F 73.4 °F 74% 29.91 in 10.0 mi WNW 6.9 mph - N/A Thunderstorm Mostly Cloudy
6:53 PM 82.0 °F 87.9 °F 73.9 °F 76% 29.91 in 10.0 mi WNW 8.1 mph - N/A Thunderstorm Thunderstorm
7:12 PM 82.4 °F 88.2 °F 73.4 °F 74% 29.92 in 10.0 mi NW 6.9 mph - N/A Thunderstorm Overcast
7:37 PM 77.0 °F - 71.6 °F 83% 29.94 in 10.0 mi NNE 16.1 mph 25.3 mph N/A   Mostly Cloudy
7:41 PM 77.0 °F - 71.6 °F 83% 29.95 in 10.0 mi NE 16.1 mph - N/A   Mostly Cloudy
7:53 PM 75.9 °F - 71.1 °F 85% 29.95 in 10.0 mi NE 10.4 mph 21.9 mph N/A   Mostly Cloudy
8:07 PM 73.4 °F - 71.6 °F 94% 29.96 in 10.0 mi East 8.1 mph 18.4 mph 0.00 in Rain , Thunderstorm Light Rain
8:28 PM 73.4 °F - 69.8 °F 88% 29.96 in 10.0 mi East 13.8 mph 21.9 mph 0.00 in Thunderstorm Scattered Clouds
8:53 PM 73.0 °F - 66.9 °F 81% 29.96 in 10.0 mi SE 8.1 mph - 0.00 in Thunderstorm Clear
9:00 PM 71.6 °F - 66.2 °F 83% 29.97 in 10.0 mi ESE 10.4 mph - N/A   Clear
9:53 PM 71.1 °F - 68.0 °F 90% 29.96 in 10.0 mi Calm Calm - N/A   Clear
10:53 PM 70.0 °F - 68.0 °F 93% 29.96 in 10.0 mi Calm Calm - N/A   Clear
11:53 PM 70.0 °F - 68.0 °F 93% 29.97 in 10.0 mi Calm Calm - N/A   Clear